Location: Baix
(44.7118°N, 4.7648°E)
Time: 02:18:24
(UTC+00:00)

Tianhe-1 - Visible Passes

Search period start: 18 June 2021 00:00
Search period end: 28 June 2021 00:00
Orbit: 374 x 387 km, 41.5° (Epoch: 17 June)

Date Brightness Start Highest point End Pass type
(mag) Time Alt. Az. Time Alt. Az. Time Alt. Az.
18 Jun 3.7 03:16:28 10° SSE 03:16:50 10° SSE 03:17:11 10° SE visible
20 Jun 3.2 02:49:38 11° S 02:51:26 15° SSE 02:53:24 10° ESE visible
22 Jun 2.6 02:25:07 19° S 02:26:03 22° SSE 02:28:34 10° ESE visible
23 Jun 3.6 01:26:46 12° ESE 01:26:46 12° ESE 01:27:10 10° ESE visible
23 Jun 1.8 02:58:52 12° WSW 03:01:33 38° S 03:04:31 10° E visible
24 Jun 2.0 02:00:31 29° S 02:00:41 29° SSE 02:03:29 10° E visible
25 Jun 3.8 01:02:10 11° ESE 01:02:10 11° ESE 01:02:19 10° ESE visible
25 Jun 1.5 02:34:16 19° WSW 02:36:13 44° S 02:39:15 10° ESE visible
26 Jun 2.0 01:35:58 32° SE 01:35:58 32° SE 01:38:15 10° E visible
26 Jun 1.5 03:08:48 10° W 03:11:48 43° S 03:14:49 10° ESE visible
27 Jun 1.3 02:09:50 32° SW 02:10:52 46° S 02:13:54 10° ESE visible
